Jaffrey, NH

11:44 PM EDT on April 24, 2017 (GMT -0400)
Jaffrey Airport-Silver Ranch

Weather History for KAFN - October, 2012

Change the Weather History Date:

Thursday, October 4, 2012

  Actual Average Record
Temperature  
Mean Temperature 62 °F -  
Max Temperature 64 °F 60 °F 79 °F (2007)
Min Temperature 59 °F 38 °F 28 °F (1996)
Degree Days  
Heating Degree Days 4    
Growing Degree Days 12 (Base 50)    
Moisture  
Dew Point 57 °F    
Average Humidity 87    
Maximum Humidity 90    
Minimum Humidity 82    
Precipitation  
Precipitation 0.10 in - - ()
Sea Level Pressure  
Sea Level Pressure 30.15 in    
Wind  
Wind Speed 0 mph (South)    
Max Wind Speed 5 mph    
Max Gust Speed -    
Visibility 5 miles    
Events Rain    
Averages and records for this station are not official NWS values.
T = Trace of Precipitation, MM = Missing Value Source: NWS Daily Summary

Daily Weather History Graph

Daily Weather History Graph

Search for Another Location

Airport or City:

Trip Planner

Search our weather history database for the weather conditions in past years. The results will help you decide how hot, cold, wet, or windy it might be!

Date:

Astronomy

Oct. 04, 2012 Rise Set
Actual Time 6:49 AM EDT 6:23 PM EDT
Civil Twilight 6:20 AM EDT 6:51 PM EDT
Nautical Twilight 5:48 AM EDT 7:24 PM EDT
Astronomical Twilight 5:15 AM EDT 7:57 PM EDT
Moon 8:50 PM EDT (10/4) 11:09 AM EDT (10/4)
Length of Visible Light 12h 30m
Length of Day
11h 34m
Waning Gibbous, 82% of the Moon is Illuminated
Oct 4
Waning Gibbous
Oct 8
Last Quarter
Oct 15
New
Oct 21
First Quarter
Oct 29
Full

Hourly Weather History & Observations

Time (EDT) Temp. Dew Point Humidity Pressure Visibility Wind Dir Wind Speed Gust Speed Precip Events Conditions
12:05 AM 60.8 °F 57.2 °F 88% 30.17 in 10.0 mi Calm Calm - N/A   Overcast
12:33 AM 62.6 °F 57.2 °F 82% 30.17 in 9.0 mi Calm Calm - N/A   Overcast
12:44 AM 62.6 °F 57.2 °F 82% 30.17 in 1.8 mi Calm Calm - N/A   Overcast
12:52 AM 61.0 °F 57.9 °F 90% 30.19 in 1.0 mi Calm Calm - N/A   Overcast
1:04 AM 60.8 °F 57.2 °F 88% 30.17 in 1.5 mi Calm Calm - N/A   Overcast
1:14 AM 60.8 °F 57.2 °F 88% 30.17 in 2.0 mi Calm Calm - N/A   Overcast
1:52 AM 61.0 °F 57.9 °F 90% 30.19 in 3.0 mi Calm Calm - N/A   Overcast
2:52 AM 60.1 °F 57.0 °F 90% 30.18 in 3.0 mi Calm Calm - N/A   Overcast
3:06 AM 60.8 °F 57.2 °F 88% 30.16 in 2.5 mi Calm Calm - N/A   Overcast
3:43 AM 60.8 °F 57.2 °F 88% 30.16 in 1.2 mi NNE 3.5 mph - N/A   Overcast
3:52 AM 60.1 °F 57.0 °F 90% 30.17 in 1.2 mi Calm Calm - N/A   Overcast
4:02 AM 60.8 °F 57.2 °F 88% 30.17 in 2.0 mi Calm Calm - N/A   Overcast
4:12 AM 60.8 °F 57.2 °F 88% 30.17 in 3.0 mi Calm Calm - N/A   Overcast
4:19 AM 60.8 °F 57.2 °F 88% 30.18 in 2.0 mi Calm Calm - N/A   Overcast
4:30 AM 60.8 °F 57.2 °F 88% 30.18 in 1.8 mi Calm Calm - N/A   Overcast
4:52 AM 60.1 °F 57.0 °F 90% 30.18 in 1.5 mi Calm Calm - N/A   Overcast
5:10 AM 60.8 °F 55.4 °F 82% 30.17 in 2.0 mi Calm Calm - N/A   Overcast
5:33 AM 60.8 °F 57.2 °F 88% 30.18 in 1.8 mi Calm Calm - N/A   Overcast
5:52 AM 59.0 °F 55.9 °F 90% 30.19 in 1.8 mi Calm Calm - N/A   Overcast
6:13 AM 59.0 °F 55.4 °F 88% 30.18 in 1.2 mi Calm Calm - N/A   Overcast
6:23 AM 59.0 °F 55.4 °F 88% 30.18 in 1.5 mi Calm Calm - N/A   Overcast
6:52 AM 59.0 °F 55.9 °F 90% 30.18 in 1.2 mi NE 3.5 mph - 0.00 in Rain Light Rain
6:57 AM 59.0 °F 55.4 °F 88% 30.17 in 0.8 mi Calm Calm - 0.00 in Rain Light Rain
7:52 AM 59.0 °F 55.9 °F 90% 30.19 in 1.0 mi Calm Calm - 0.01 in Rain Light Rain
7:54 AM 59.0 °F 55.4 °F 88% 30.17 in 1.5 mi Calm Calm - 0.00 in Rain Light Rain
8:04 AM 59.0 °F 55.4 °F 88% 30.18 in 2.5 mi Calm Calm - 0.00 in   Overcast
8:11 AM 59.0 °F 55.4 °F 88% 30.18 in 5.0 mi Calm Calm - 0.00 in Rain Light Rain
8:52 AM 60.1 °F 55.9 °F 86% 30.19 in 8.0 mi Calm Calm - 0.02 in Rain Light Rain
9:52 AM 60.1 °F 57.0 °F 90% 30.19 in 8.0 mi Calm Calm - 0.00 in   Overcast
10:52 AM 61.0 °F 57.0 °F 87% 30.19 in 10.0 mi Calm Calm - N/A   Overcast
11:52 AM 62.1 °F 57.0 °F 84% 30.19 in 4.0 mi Calm Calm - 0.00 in   Haze
11:59 AM 60.8 °F 57.2 °F 88% 30.18 in 1.8 mi Calm Calm - 0.00 in Rain Light Rain
12:24 PM 60.8 °F 57.2 °F 88% 30.16 in 2.5 mi Calm Calm - 0.00 in Rain Light Rain
12:31 PM 62.6 °F 57.2 °F 82% 30.17 in 3.0 mi Calm Calm - 0.00 in Rain Light Rain
12:52 PM 62.1 °F 57.9 °F 86% 30.17 in 8.0 mi Calm Calm - 0.01 in Rain Light Rain
1:52 PM 62.1 °F 57.9 °F 86% 30.13 in 7.0 mi Calm Calm - 0.03 in Rain Light Rain
2:03 PM 62.6 °F 57.2 °F 82% 30.11 in 8.0 mi Calm Calm - 0.01 in Rain Light Rain
2:52 PM 63.0 °F 59.0 °F 87% 30.09 in 10.0 mi Calm Calm - 0.02 in   Overcast
3:10 PM 64.4 °F 59.0 °F 83% 30.08 in 10.0 mi Calm Calm - N/A   Overcast
3:52 PM 63.0 °F 59.0 °F 87% 30.11 in 10.0 mi Calm Calm - 0.00 in Rain Light Rain
4:52 PM 64.0 °F 59.0 °F 84% 30.10 in 10.0 mi Calm Calm - 0.00 in   Overcast
5:52 PM 64.0 °F 60.1 °F 87% 30.09 in 10.0 mi Calm Calm - 0.00 in   Overcast
6:05 PM 64.4 °F 60.8 °F 88% 30.08 in 9.0 mi Calm Calm - 0.00 in Rain Light Rain
6:52 PM 63.0 °F 59.0 °F 87% 30.08 in 10.0 mi Calm Calm - 0.01 in   Overcast
7:52 PM 63.0 °F 59.0 °F 87% 30.07 in 9.0 mi SW 4.6 mph - 0.00 in Rain Light Rain
9:52 PM 63.0 °F 59.0 °F 87% 30.08 in 7.0 mi South 4.6 mph - N/A   Overcast
10:47 PM 62.6 °F 59.0 °F 88% 30.06 in 10.0 mi Calm Calm - N/A   Overcast
10:52 PM 63.0 °F 59.0 °F 87% 30.08 in 10.0 mi Calm Calm - N/A   Overcast
11:52 PM 63.0 °F 59.0 °F 87% 30.07 in 9.0 mi SW 3.5 mph - N/A   Overcast